Monroe, MI

9:27 PM EDT on May 20, 2018 (GMT -0400)
Custer

Weather History for KTTF - December, 2013

Change the Weather History Date:

Thursday, December 5, 2013

  Actual Average Record
Temperature  
Mean Temperature 46 °F -  
Max Temperature 60 °F 38 °F 69 °F (2001)
Min Temperature 32 °F 26 °F 4 °F (1976)
Degree Days  
Heating Degree Days 19    
Moisture  
Dew Point 36 °F    
Average Humidity 73    
Maximum Humidity 88    
Minimum Humidity 61    
Precipitation  
Precipitation 0.00 in - - ()
Sea Level Pressure  
Sea Level Pressure 29.87 in    
Wind  
Wind Speed 14 mph (WSW)    
Max Wind Speed 22 mph    
Max Gust Speed 34 mph    
Visibility 10 miles    
Events      
Averages and records for this station are not official NWS values.
T = Trace of Precipitation, MM = Missing Value Source: NWS Daily Summary

Daily Weather History Graph

Daily Weather History Graph

Search for Another Location

Airport or City:

Astronomy

Dec. 05, 2013 Rise Set
Actual Time 7:46 AM EST 5:02 PM EST
Civil Twilight 7:14 AM EST 5:33 PM EST
Nautical Twilight 6:40 AM EST 6:08 PM EST
Astronomical Twilight 6:06 AM EST 6:42 PM EST
Moon 10:04 AM EST (12/5) 8:23 PM EST (12/5)
Length of Visible Light 10h 18m
Length of Day
9h 16m
Waxing Crescent, 10% of the Moon is Illuminated
Dec 5
Waxing Crescent
Dec 9
First Quarter
Dec 17
Full
Dec 25
Last Quarter
Jan 1
New

Hourly Weather History & Observations

Time (EST) Temp. Windchill Dew Point Humidity Pressure Visibility Wind Dir Wind Speed Gust Speed Precip Events Conditions
12:13 AM 60.8 °F - 53.6 °F 77% 29.64 in 10.0 mi SSW 16.1 mph 21.9 mph N/A   Overcast
12:33 AM 59.0 °F - 53.6 °F 82% 29.63 in 10.0 mi SSW 13.8 mph - N/A   Overcast
12:53 AM 59.0 °F - 53.6 °F 82% 29.63 in 10.0 mi SSW 11.5 mph - N/A   Overcast
1:14 AM 59.0 °F - 53.6 °F 82% 29.62 in 10.0 mi SSW 9.2 mph - N/A   Overcast
1:34 AM 60.8 °F - 53.6 °F 77% 29.62 in 10.0 mi SSW 12.7 mph - N/A   Overcast
1:54 AM 60.8 °F - 53.6 °F 77% 29.63 in 10.0 mi SSW 13.8 mph 18.4 mph N/A   Overcast
2:14 AM 59.0 °F - 53.6 °F 82% 29.63 in 10.0 mi SW 11.5 mph 16.1 mph N/A   Scattered Clouds
2:34 AM 59.0 °F - 53.6 °F 82% 29.64 in 10.0 mi SW 11.5 mph - N/A   Scattered Clouds
2:54 AM 60.8 °F - 53.6 °F 77% 29.65 in 10.0 mi SW 16.1 mph 21.9 mph N/A   Scattered Clouds
3:14 AM 60.8 °F - 53.6 °F 77% 29.65 in 10.0 mi SW 18.4 mph 23.0 mph N/A   Overcast
3:34 AM 60.8 °F - 53.6 °F 77% 29.65 in 10.0 mi SW 16.1 mph 20.7 mph N/A   Mostly Cloudy
3:54 AM 60.8 °F - 53.6 °F 77% 29.65 in 10.0 mi SW 16.1 mph 24.2 mph N/A   Scattered Clouds
4:14 AM 60.8 °F - 53.6 °F 77% 29.66 in 10.0 mi SW 15.0 mph 20.7 mph N/A   Mostly Cloudy
4:35 AM 59.0 °F - 53.6 °F 82% 29.65 in 10.0 mi SW 15.0 mph 24.2 mph N/A   Mostly Cloudy
4:55 AM 59.0 °F - 53.6 °F 82% 29.66 in 10.0 mi SW 16.1 mph 21.9 mph N/A   Mostly Cloudy
5:15 AM 59.0 °F - 53.6 °F 82% 29.67 in 10.0 mi SW 16.1 mph 24.2 mph N/A   Overcast
5:35 AM 57.2 °F - 53.6 °F 88% 29.69 in 10.0 mi WSW 19.6 mph 26.5 mph N/A   Overcast
5:55 AM 57.2 °F - 50.0 °F 77% 29.69 in 10.0 mi WSW 18.4 mph 34.5 mph N/A   Overcast
6:15 AM 57.2 °F - 50.0 °F 77% 29.70 in 10.0 mi WSW 17.3 mph 23.0 mph N/A   Overcast
6:35 AM 53.6 °F - 48.2 °F 82% 29.71 in 10.0 mi WSW 19.6 mph 29.9 mph N/A   Overcast
6:55 AM 51.8 °F - 44.6 °F 76% 29.72 in 10.0 mi WSW 20.7 mph 27.6 mph N/A   Scattered Clouds
7:15 AM 50.0 °F - 42.8 °F 76% 29.73 in 10.0 mi WSW 21.9 mph 28.8 mph N/A   Clear
7:35 AM 48.2 °F - 42.8 °F 82% 29.75 in 10.0 mi WSW 16.1 mph 25.3 mph N/A   Clear
7:56 AM 46.4 °F 39.8 °F 41.0 °F 81% 29.76 in 10.0 mi WSW 16.1 mph 24.2 mph N/A   Scattered Clouds
8:16 AM 46.4 °F 40.7 °F 39.2 °F 76% 29.77 in 10.0 mi WSW 12.7 mph 21.9 mph N/A   Clear
8:36 AM 44.6 °F 37.8 °F 39.2 °F 81% 29.78 in 10.0 mi WSW 15.0 mph 19.6 mph N/A   Clear
8:56 AM 44.6 °F 37.4 °F 37.4 °F 76% 29.80 in 10.0 mi WSW 16.1 mph - N/A   Clear
9:16 AM 44.6 °F 37.2 °F 37.4 °F 76% 29.81 in 10.0 mi WSW 17.3 mph 21.9 mph N/A   Scattered Clouds
9:36 AM 44.6 °F 37.4 °F 37.4 °F 76% 29.81 in 10.0 mi WSW 16.1 mph - N/A   Overcast
9:56 AM 42.8 °F 34.5 °F 35.6 °F 76% 29.83 in 10.0 mi WSW 18.4 mph 24.2 mph N/A   Overcast
10:16 AM 42.8 °F 34.0 °F 35.6 °F 76% 29.86 in 10.0 mi WSW 20.7 mph 27.6 mph N/A   Mostly Cloudy
10:36 AM 42.8 °F 34.3 °F 35.6 °F 76% 29.86 in 10.0 mi WSW 19.6 mph 23.0 mph N/A   Scattered Clouds
10:56 AM 42.8 °F 34.5 °F 33.8 °F 70% 29.87 in 10.0 mi WSW 18.4 mph 27.6 mph N/A   Mostly Cloudy
11:16 AM 41.0 °F 32.5 °F 33.8 °F 76% 29.86 in 10.0 mi WSW 17.3 mph 24.2 mph N/A   Mostly Cloudy
11:36 AM 41.0 °F 33.9 °F 33.8 °F 76% 29.86 in 10.0 mi West 12.7 mph 20.7 mph N/A   Overcast
11:57 AM 41.0 °F 32.5 °F 32.0 °F 70% 29.88 in 10.0 mi West 17.3 mph - N/A   Overcast
12:12 PM 41.0 °F 33.5 °F 33.8 °F 76% 29.88 in 10.0 mi WSW 13.8 mph 19.6 mph N/A   Overcast
12:32 PM 39.2 °F 31.6 °F 32.0 °F 75% 29.88 in 10.0 mi West 12.7 mph 18.4 mph N/A   Overcast
12:52 PM 39.2 °F 29.8 °F 30.2 °F 70% 29.90 in 10.0 mi West 18.4 mph 25.3 mph N/A   Mostly Cloudy
1:12 PM 39.2 °F 30.5 °F 28.4 °F 65% 29.90 in 10.0 mi West 16.1 mph 23.0 mph N/A   Scattered Clouds
1:32 PM 39.2 °F 30.8 °F 28.4 °F 65% 29.90 in 10.0 mi West 15.0 mph - N/A   Scattered Clouds
1:52 PM 39.2 °F 30.5 °F 28.4 °F 65% 29.90 in 10.0 mi West 16.1 mph 21.9 mph N/A   Mostly Cloudy
2:12 PM 39.2 °F 29.8 °F 28.4 °F 65% 29.91 in 10.0 mi West 18.4 mph 23.0 mph N/A   Scattered Clouds
2:33 PM 39.2 °F 30.8 °F 28.4 °F 65% 29.91 in 10.0 mi West 15.0 mph 18.4 mph N/A   Mostly Cloudy
2:53 PM 39.2 °F 30.8 °F 26.6 °F 61% 29.91 in 10.0 mi West 15.0 mph 20.7 mph N/A   Mostly Cloudy
3:13 PM 39.2 °F 30.5 °F 26.6 °F 61% 29.93 in 10.0 mi WNW 16.1 mph 20.7 mph N/A   Scattered Clouds
3:33 PM 39.2 °F 31.6 °F 28.4 °F 65% 29.94 in 10.0 mi West 12.7 mph - N/A   Scattered Clouds
3:53 PM 37.4 °F 28.5 °F 28.4 °F 70% 29.95 in 10.0 mi West 15.0 mph 18.4 mph N/A   Scattered Clouds
4:13 PM 37.4 °F 29.8 °F 26.6 °F 65% 29.97 in 10.0 mi West 11.5 mph 18.4 mph N/A   Scattered Clouds
4:33 PM 37.4 °F 28.5 °F 26.6 °F 65% 29.97 in 10.0 mi West 15.0 mph - N/A   Clear
4:53 PM 37.4 °F 28.5 °F 26.6 °F 65% 30.00 in 10.0 mi West 15.0 mph 20.7 mph N/A   Clear
5:13 PM 37.4 °F 29.3 °F 26.6 °F 65% 30.01 in 10.0 mi West 12.7 mph - N/A   Clear
5:33 PM 35.6 °F 28.6 °F 26.6 °F 70% 30.03 in 10.0 mi West 9.2 mph - N/A   Scattered Clouds
5:53 PM 35.6 °F 28.6 °F 26.6 °F 70% 30.03 in 10.0 mi West 9.2 mph - N/A   Scattered Clouds
6:13 PM 35.6 °F 27.5 °F 26.6 °F 70% 30.03 in 10.0 mi West 11.5 mph - N/A   Scattered Clouds
6:34 PM 35.6 °F 28.6 °F 24.8 °F 65% 30.01 in 10.0 mi West 9.2 mph - N/A   Scattered Clouds
6:54 PM 35.6 °F 28.6 °F 24.8 °F 65% 30.03 in 10.0 mi West 9.2 mph - N/A   Overcast
7:14 PM 35.6 °F 28.6 °F 24.8 °F 65% 30.05 in 10.0 mi West 9.2 mph - N/A   Overcast
7:34 PM 35.6 °F 27.5 °F 24.8 °F 65% 30.05 in 10.0 mi West 11.5 mph - N/A   Overcast
7:54 PM 35.6 °F 27.5 °F 24.8 °F 65% 30.06 in 10.0 mi West 11.5 mph - N/A   Overcast
8:14 PM 35.6 °F 27.1 °F 24.8 °F 65% 30.08 in 10.0 mi West 12.7 mph - N/A   Overcast
8:34 PM 35.6 °F 27.5 °F 24.8 °F 65% 30.09 in 10.0 mi West 11.5 mph 18.4 mph N/A   Overcast
8:54 PM 33.8 °F 26.4 °F 24.8 °F 70% 30.06 in 10.0 mi WNW 9.2 mph - N/A   Overcast
9:15 PM 33.8 °F 27.7 °F 24.8 °F 70% 30.06 in 10.0 mi West 6.9 mph - N/A   Overcast
9:35 PM 33.8 °F 27.0 °F 24.8 °F 70% 30.08 in 10.0 mi West 8.1 mph - N/A   Overcast
9:55 PM 33.8 °F 24.3 °F 24.8 °F 70% 30.11 in 10.0 mi West 13.8 mph 19.6 mph N/A   Overcast
10:15 PM 33.8 °F 25.8 °F 23.0 °F 65% 30.10 in 10.0 mi WNW 10.4 mph - N/A   Overcast
10:35 PM 32.0 °F 24.8 °F 23.0 °F 69% 30.09 in 10.0 mi WNW 8.1 mph - N/A   Overcast
10:55 PM 32.0 °F 24.2 °F 23.0 °F 69% 30.13 in 10.0 mi West 9.2 mph - N/A   Overcast
11:15 PM 32.0 °F 24.2 °F 23.0 °F 69% 30.13 in 10.0 mi West 9.2 mph - N/A   Overcast
11:35 PM 32.0 °F 24.8 °F 23.0 °F 69% 30.12 in 10.0 mi WNW 8.1 mph - N/A   Overcast
11:55 PM 32.0 °F 24.2 °F 23.0 °F 69% 30.11 in 10.0 mi WNW 9.2 mph - N/A   Overcast